This demonstration page uses our WeatherBlox Daily Observations layout. Learn more.

Left ArrowRight Arrow

39.01783, -85.05884

Hourly Observations for October 19, 2020

Temp ( °F °C ) Dew Point ( °F °C ) Humidity (%) Winds ( mph kmh ) Pressure ( in mb ) Visibility ( mi km ) Precip ( " mm )
12:52 am 00:52 Cloudy with Light Rain 54 12.2 51 10.6 90 90 Calm 30.17 1022 7 11.26538 0.02 0.508
1:52 am 01:52 Cloudy 54 12.2 51 10.6 90 90 Calm 30.17 1022 8 12.87472 0.01 0.254
2:40 am 02:40 Cloudy 54 12.2 51 10.6 90 90 SE 5 7 30.16 1021 10 16.0934 0.001 0.001
2:52 am 02:52 Cloudy 54 12.2 52 11.1 93 93 Calm 30.16 1021 10 16.0934 0.001 0.001
3:29 am 03:29 Cloudy with Light Rain 54 12.2 52 11.1 93 93 Calm 30.17 1022 2 3.21868 0.01 0.254
3:52 am 03:52 Cloudy with Light Rain 54 12.2 52 11.1 93 93 Calm 30.15 1021 2.5 4.02335 0.07 1.778
4:05 am 04:05 Cloudy with Light Rain 54 12.2 52 11.1 93 93 NE 6 9 30.15 1021 5 8.0467 0.01 0.254
6:52 am 06:52 Cloudy with Light Rain 54 12.2 52 11.1 93 93 SE 9 15 30.14 1021 4 6.43736 0.15 3.81
7:44 am 07:44 Cloudy with Rain 54 12.2 52 11.1 93 93 SE 8 13 30.15 1021 2.5 4.02335 0.21 5.334
7:52 am 07:52 Cloudy with Heavy Rain 54 12.2 52 11.1 93 93 SE 10 17 30.13 1020 2.5 4.02335 0.24 6.096
8:09 am 08:09 Cloudy with Rain 54 12.2 52 11.1 93 93 SE 10 17 30.13 1020 3 4.82802 0.07 1.778
8:52 am 08:52 Cloudy with Rain 55 12.8 53 11.7 93 93 SSE 13 20 30.13 1020 3 4.82802 0.23 5.842
9:10 am 09:10 Cloudy with Rain 56 13.3 53 11.7 90 90 SSE 15 24 30.13 1020 2.5 4.02335 0.07 1.778
9:26 am 09:26 Cloudy with Light Rain 56 13.3 53 11.7 90 90 SSE 15 24 30.13 1020 3 4.82802 0.13 3.302
9:52 am 09:52 Cloudy with Light Rain 56 13.3 54 12.2 93 93 S 8 13 30.13 1020 4 6.43736 0.17 4.318
10:28 am 10:28 Cloudy with Light Rain 56 13.3 53 11.7 90 90 SSE 10 17 30.13 1020 4 6.43736 0.06 1.524
10:52 am 10:52 Cloudy with Light Rain 56 13.3 54 12.2 93 93 S 12 19 30.12 1020 4 6.43736 0.09 2.286
11:19 am 11:19 Cloudy with Light Rain 56 13.3 54 12.2 93 93 S 14 22 30.13 1020 4 6.43736 0.04 1.016
11:52 am 11:52 Cloudy with Light Rain 56 13.3 54 12.2 93 93 S 10 17 30.12 1020 4 6.43736 0.09 2.286
12:06 pm 12:06 Cloudy 57 13.9 54 12.2 90 90 S 9 15 30.14 1021 7 11.26538 0.001 0.001
12:52 pm 12:52 Cloudy with Light Rain 57 13.9 55 12.8 93 93 S 8 13 30.12 1020 8 12.87472 0.01 0.254
1:52 pm 13:52 Cloudy with Light Rain 58 14.4 55 12.8 90 90 SSW 6 9 30.1 1019 7 11.26538 0.001 0.001
2:22 pm 14:22 Cloudy with Mist and Fog 58 14.4 56 13.3 93 93 Calm 30.12 1020 3 4.82802 0.001 0.001
2:45 pm 14:45 Cloudy with Light Rain 58 14.4 56 13.3 93 93 Calm 30.11 1019 1.5 2.41401 0.001 0.001
2:52 pm 14:52 Cloudy with Light Rain 58 14.4 56 13.3 93 93 Calm 30.09 1019 1.5 2.41401 0.001 0.001
3:36 pm 15:36 Cloudy with Mist and Fog 57 13.9 55 12.8 93 93 N 6 9 30.1 1019 0.5 0.80467 0.01 0.254
3:52 pm 15:52 Cloudy with Mist and Fog 55 12.8 53 11.7 93 93 N 9 15 30.09 1019 1 1.60934 0.01 0.254
4:52 pm 16:52 Cloudy with Mist and Fog 54 12.2 53 11.7 97 97 N 5 7 30.09 1019 1 1.60934 0 0
5:52 pm 17:52 Cloudy with Mist and Fog 56 13.3 54 12.2 93 93 Calm 30.08 1019 1 1.60934 0 0
6:52 pm 18:52 Cloudy with Mist and Fog 56 13.3 55 12.8 97 97 N 6 9 30.07 1018 1 1.60934 0 0
7:52 pm 19:52 Mostly Cloudy with Mist and Fog 54 12.2 52 11.1 93 93 N 6 9 30.09 1019 1 1.60934 0 0
8:52 pm 20:52 Cloudy with Light Rain 53 11.7 51 10.6 93 93 Calm 30.1 1019 0.25 0.402335 0.01 0.254
9:13 pm 21:13 Cloudy with Rain 53 11.7 52 11.1 96 96 Calm 30.1 1019 2.5 4.02335 0.01 0.254
9:52 pm 21:52 Cloudy with Light Rain 54 12.2 52 11.1 93 93 Calm 30.09 1019 2.5 4.02335 0.03 0.762
10:06 pm 22:06 Cloudy with Drizzle 54 12.2 52 11.1 93 93 N 5 7 30.1 1019 2.5 4.02335 0.001 0.001
10:20 pm 22:20 Cloudy with Patchy Fog 54 12.2 52 11.1 93 93 N 6 9 30.1 1019 1.5 2.41401 0.001 0.001
10:24 pm 22:24 Cloudy with Patchy Fog 53 11.7 52 11.1 96 96 N 8 13 30.1 1019 0.5 0.80467 0.001 0.001
10:52 pm 22:52 Cloudy with Light Rain 53 11.7 51 10.6 93 93 NNW 8 13 30.09 1019 0.5 0.80467 0.02 0.508
11:52 pm 23:52 Cloudy with Light Rain 53 11.7 51 10.6 93 93 NNW 3 6 30.09 1019 0.5 0.80467 0.05 1.27

Powered by AerisWeather